Showing default

NUSAT-34 (AMELIA EARHART, 55045

Orbit data source: Space-Track

NUSAT-34 (AMELIA EARHART, 55045 is a payload satellite owned by URUGUS S.A. (AR) in SSO that was launched on Tue, 03 Jan 2023 UTC via an FALCON 9 launch vehicle from the Air Force Eastern Test Range (AFETR). Payload-class satellites include a variety of spacecraft equipped with specific instruments for various scientific and technological missions. These include communications satellites like Starlink; space stations such as the ISS; scientific satellites like the Hubble; Earth observation satellites from companies like Planet Labs, Umbra, and HawkEye 360; GPS; miniature CubeSats for education and research; and military/defense satellites.

Loading next visibility...
Identifier
55045, 2023-001AN
Orbit
SSO
Country
Flag of UnknownUnknown / ARGN
Related business
Manufacturer
URUGUS S.A.
Mission
Operational Commercial Imaging
Bus & Motor
NEWSAT V, Unknown motor
Mass
41.5 kg wet, 38.5 kg dry
Launch date (UTC)
2023-01-03 (3 years ago)
Launch vehicle
FALCON 9
Launch site
Air Force Eastern Test Range (AFETR)
Object type
Payload
Rocket body
Debris
Shape & HBR
Box, 1.0 m
Radar Cross Section
0.542 m², Medium (>0.1 m² and < 1m²)

Expand to show TLE details & history
Last TLE update: 11 hours ago

TLE from 11 hours ago
0 NUSAT-34 (AMELIA EARHART
1 55045U 23001AN  26014.26396565  .00007551  00000-0  28382-3 0  9994
2 55045  97.3558  79.4834 0006269 272.5733  87.4789 15.27430758168746
Epoch: 2026-01-14T06:20Z
TLE epoch observation values (Epoch: 2026-01-14T06:20:06.632Z)
Latitude
0.00004°
Longitude
-129.27869°
Altitude
486.411 km
Speed
7.622 km/s
True Right ascension
05h 17m 56s
True Declination
0° 00' 00"
Sunlit
Object was in full shadow at epoch
Visualization orbit readout
Latitude
Unknown
Longitude
Unknown
Altitude
Unknown
Speed
Unknown
Apparent Right ascension
Unknown
Apparent Declination
Unknown
Sunlit
N/A
Visualization observer readout
Local Sidereal Time
17:59:23
Azimuth
Unknown
Elevation
Unknown
Doppler factor
Unknown
Orbital elements
Apogee altitude
484.749 km
Perigee altitude
476.15 km
Semi-major axis
6,858.587 km
Eccentricity
0.00063
Inclination
97.3558°
RAAN
79.4834°
Arg. of periapsis
272.5733°
True anomaly
87.55067°
Mean anomaly
87.4789°
Eccentric anomaly
87.51478°
Mean motion
3.82112 °/min
Orbital period
94.21 mins
BSTAR
0.00028382
Loading maneuver chart data...
Computing Atmospheric mass density...
Loading historical data...
Loading historical data...
Loading historical data...
Loading historical data...
Loading historical data...
Loading historical data...
Loading historical data...

Documentation

Showing up to 5 results
|